This is the latest recevied weather packets stored in our database for station/object DL2AKT-20. If no packets are shown the sender has not sent any weather packets the latest 10 day(s).
| Time | Temp. | Humidity | Pressure | Rain* | Wind** | Luminosity | Snow |
|---|---|---|---|---|---|---|---|
| 1777979067 | 19.44° C | 52% | 1012.5 hPa | - | - | - | - |
| 1777978167 | 19.44° C | 53% | 1012.5 hPa | - | - | - | - |
| 1777977267 | 19.44° C | 52% | 1012.8 hPa | - | - | - | - |
| 1777976366 | 19.44° C | 52% | 1012.8 hPa | - | - | - | - |
| 1777975466 | 20° C | 51% | 1012.9 hPa | - | - | - | - |
| 1777974566 | 19.44° C | 51% | 1013 hPa | - | - | - | - |
| 1777973666 | 19.44° C | 51% | 1013 hPa | - | - | - | - |
| 1777972766 | 19.44° C | 49% | 1013.3 hPa | - | - | - | - |
| 1777971866 | 19.44° C | 49% | 1013.2 hPa | - | - | - | - |
| 1777970966 | 19.44° C | 49% | 1013.3 hPa | - | - | - | - |
| 1777970066 | 19.44° C | 50% | 1013.2 hPa | - | - | - | - |
| 1777969166 | 19.44° C | 49% | 1013.3 hPa | - | - | - | - |
| 1777968266 | 18.89° C | 50% | 1013.3 hPa | - | - | - | - |
| 1777967366 | 18.89° C | 50% | 1013.3 hPa | - | - | - | - |
| 1777966465 | 18.89° C | 50% | 1013.2 hPa | - | - | - | - |
| 1777965565 | 18.89° C | 50% | 1013.2 hPa | - | - | - | - |
| 1777964665 | 18.89° C | 50% | 1013.2 hPa | - | - | - | - |
| 1777963767 | 18.89° C | 51% | 1013.1 hPa | - | - | - | - |
| 1777962867 | 18.89° C | 50% | 1013.2 hPa | - | - | - | - |
| 1777961967 | 18.33° C | 51% | 1013.2 hPa | - | - | - | - |
| 1777961066 | 18.33° C | 51% | 1013.5 hPa | - | - | - | - |
| 1777960166 | 17.78° C | 52% | 1013.4 hPa | - | - | - | - |
| 1777959266 | 17.78° C | 54% | 1013.4 hPa | - | - | - | - |
| 1777958366 | 16.11° C | 59% | 1013.1 hPa | - | - | - | - |
| 1777957466 | 16.11° C | 59% | 1013.1 hPa | - | - | - | - |
* Rain since midnight (hover to see other rain measurements)
** Current wind speed in m/s (hover to see current wind gust speed)